#timestamp,LO_Frequency,Hit,StdDev 
1684944015.5,286046986.6,N
1684944035.3,286046982.5,N
1684944055.2,286046977.6,N
1684944075.9,286046978.9,N
1684944095.7,286046986.3,N
1684944115.6,286046982.9,N
1684944135.4,286046977.7,N
1684944155.2,286046977.9,N
1684944175.1,286046975.0,N
1684944176.0,286046975.0,N
1684944195.8,286046980.1,N
1684944215.7,286046980.6,N
1684944235.5,286046981.6,N
1684944255.3,286046986.4,N
1684944275.2,286046989.9,N
1684944295.0,286046988.1,N
1684944295.9,286046988.1,N
1684944315.7,286046988.8,N
1684944335.6,286046991.7,N
1684944355.4,286046994.6,N
1684944375.3,286046992.6,N
1684944395.1,286046990.9,N
1684944396.0,286046990.9,N
1684944415.8,286046993.0,N
1684944435.7,286046993.4,N
1684944455.5,286046998.6,N
1684944475.4,286047001.1,N
1684944495.2,286046998.2,N
1684944515.0,286046996.9,N
1684944515.9,286046996.9,N
1684944535.8,286046998.8,N
1684944555.6,286046996.9,N
1684944575.5,286046997.3,N
1684944595.3,286047000.9,N
1684944615.1,286047004.2,N
1684944635.9,286047000.6,N
1684944655.7,286046999.1,N
1684944675.5,286047000.3,N
1684944695.4,286047001.8,N
1684944715.2,286047004.7,N
1684944735.0,286047012.3,N
1684944736.0,286047012.3,N
1684944755.8,286047011.7,N
1684944775.6,286047010.6,N
1684944795.5,286047008.2,N
1684944815.3,286047007.8,N
1684944835.1,286047006.8,N
1684944855.9,286046999.8,N
1684944875.7,286046997.7,N
1684944895.5,286046997.1,N
1684944915.4,286046995.7,N
1684944935.2,286046996.3,N
1684944955.1,286046997.1,N
1684944956.0,286046997.1,N
1684944975.8,286046999.0,N
1684944995.6,286046998.8,N
1684945015.5,286047005.6,N
1684945035.3,286047001.5,N
1684945055.1,286047003.2,N
1684945075.9,286047003.3,N
1684945095.7,286047001.9,N
1684945115.6,286047002.8,N
1684945135.4,286046998.4,N
1684945155.2,286046999.5,N
1684945175.1,286046996.7,N
1684945176.0,286046996.7,N
1684945195.8,286047002.1,N
1684945215.7,286047007.1,N
1684945235.5,286047006.2,N
1684945255.3,286047014.0,N
1684945275.2,286047014.2,N
1684945295.9,286047011.3,N
1684945315.7,286047006.6,N
1684945335.6,286047004.5,N
1684945355.4,286047008.2,N
1684945375.3,286047008.3,N
1684945395.1,286047012.4,N
1684945396.0,286047012.4,N
1684945415.8,286047008.2,N
1684945435.7,286047008.0,N
1684945455.5,286047011.6,N
1684945475.3,286047015.4,N
1684945495.2,286047015.9,N
1684945515.0,286047019.6,Y
1684945515.9,286047019.6,P
1684945535.8,286047013.9,N
1684945555.6,286047011.5,N
1684945575.4,286047012.7,N
1684945595.3,286047015.6,Y
1684945615.1,286047005.7,P
1684945635.9,286047002.6,N
1684945655.7,286047004.1,N
1684945675.5,286047007.7,N
1684945695.4,286047015.0,Y
1684945715.2,286047005.5,P
1684945735.0,286047002.0,P
1684945735.9,286047002.0,N
1684945755.8,286047003.1,N
1684945775.6,286047000.4,N
1684945795.5,286047002.5,N
1684945815.3,286047000.3,N
1684945835.1,286047005.6,N
1684945855.9,286047003.9,N
1684945875.7,286047001.7,N
1684945895.5,286047004.2,N
1684945915.4,286047005.5,N
1684945935.2,286047005.8,N
1684945955.1,286047005.6,N
1684945956.0,286047005.6,N
1684945975.8,286047005.8,N
1684945995.6,286047003.9,N
1684946015.5,286047003.7,N
1684946035.3,286047001.7,N
1684946055.1,286047001.7,N
1684946075.9,286047001.5,N
1684946095.7,286047001.0,N
1684946115.6,286047001.0,N
1684946135.4,286046998.1,N
1684946155.2,286046998.8,N
1684946175.1,286046998.7,N
1684946176.0,286046998.7,N
1684946195.8,286046995.1,N
1684946215.6,286046995.4,N
1684946235.5,286046997.5,N
1684946255.3,286046994.5,N
1684946275.2,286046996.1,N
1684946295.9,286046992.5,N
1684946315.7,286046997.5,N
1684946335.6,286046993.5,N
1684946355.4,286046991.2,N
1684946375.2,286046989.4,N
1684946395.1,286046993.4,N
1684946396.0,286046993.4,N
1684946415.8,286046995.8,N
1684946435.7,286046999.5,N
1684946455.5,286046998.0,N
1684946475.3,286046996.4,N
1684946495.2,286046997.8,N
1684946515.0,286046997.4,N
1684946515.9,286046997.4,N
1684946535.8,286046996.2,N
1684946555.6,286046993.7,N
1684946575.4,286047000.5,N
1684946595.3,286046999.7,N
1684946615.1,286047002.3,N
1684946635.8,286047000.9,N
1684946655.7,286046999.1,N
1684946675.5,286046997.7,N
1684946695.4,286046994.9,N
1684946715.2,286047000.5,N
1684946735.0,286046995.1,N
1684946735.9,286046995.1,N
1684946755.8,286046994.3,N
1684946775.6,286046992.9,N
1684946795.4,286046995.8,N
1684946815.3,286046997.8,N
1684946835.1,286046997.7,N
1684946855.9,286046999.6,N
1684946875.7,286047005.9,N
1684946895.5,286047001.3,N
1684946915.4,286046998.2,N
1684946935.2,286047000.1,N
1684946955.0,286047001.4,N
1684946955.9,286047001.4,N
1684946975.8,286047005.3,N
1684946995.6,286047005.0,N
1684947015.5,286047007.2,N
1684947035.3,286047005.1,N
1684947055.1,286047005.0,N
1684947075.9,286047006.0,N
1684947095.7,286047006.0,N
1684947115.5,286047001.3,N
1684947135.4,286047006.7,N
1684947155.2,286047003.4,N
1684947175.1,286047005.2,N
1684947176.0,286047005.2,N
1684947195.8,286047005.2,N
1684947215.6,286047003.8,N
1684947235.5,286047003.5,N
1684947255.3,286047001.8,N
1684947275.2,286047002.3,N
1684947295.9,286047000.9,N
1684947315.7,286047001.4,N
1684947335.6,286047000.4,N
1684947355.4,286046999.0,N
1684947375.2,286046996.9,N
1684947395.1,286046997.2,N
1684947396.0,286046997.2,N
1684947415.8,286046999.0,N
1684947435.7,286046998.1,N
1684947455.5,286046998.9,N
1684947475.3,286046999.0,N
1684947495.2,286046997.9,N
1684947515.0,286046997.6,N
1684947515.9,286046997.6,N
1684947535.7,286046995.1,N
1684947555.6,286046994.1,N
1684947575.4,286046994.6,N
1684947595.3,286046993.6,N
